User: anonymous   Login
Location: Plum
(40.5000°N, 79.7500°W)
Time: 17:20:18
(UTC-04:00)
Language:

Cosmos 1825 - Orbit

View from above orbital plane
View from above orbital plane
View from above satellite
View from above satellite

Ground track
Ground track

The orbit data is extracted from the following two-line orbital elements,

1 17566U 87024A   14296.75043729  .00006608  00000-0  36982-3 0  1303
2 17566 082.5064 166.6373 0004398 356.7062 003.4140 15.13281499507183
Epoch (UTC): 23 October 2014 18:00:37
Eccentricity: 0.0004398
inclination: 82.5064°
perigee height: 523 km
apogee height: 529 km
right ascension of ascending node: 166.6373°
argument of perigee: 356.7062°
revolutions per day: 15.13281499
mean anomaly at epoch: 3.4140°
orbit number at epoch: 50718

The dashed part of the orbit path shows where the satellite is in the earth's shadow,  

DLR